#timestamp,LO_Frequency,Hit,StdDev 
1543489215.3,286046998.7,N
1543489235.1,286046998.9,N
1543489255.8,286047000.9,N
1543489275.7,286047001.2,N
1543489295.5,286046999.2,N
1543489315.4,286046996.8,N
1543489335.2,286046998.8,N
1543489355.0,286046998.7,N
1543489356.0,286046998.7,N
1543489375.8,286046999.0,N
1543489395.6,286046998.5,N
1543489415.5,286046998.5,N
1543489435.3,286046999.0,N
1543489455.1,286046999.0,N
1543489475.9,286046999.5,N
1543489495.7,286046997.5,N
1543489515.6,286046995.7,Y
1543489535.4,286046997.4,P
1543489555.2,286046996.5,P
1543489575.1,286046995.3,P
1543489576.0,286046995.3,Y
1543489595.8,286046998.4,P
1543489615.6,286046998.4,N
1543489635.5,286046998.3,N
1543489655.3,286046998.7,N
1543489675.2,286046996.6,Y
1543489695.9,286047000.6,P
1543489715.7,286047002.7,N
1543489735.6,286047002.3,N
1543489755.4,286046999.7,N
1543489775.2,286047002.6,N
1543489795.1,286047002.0,N
1543489796.0,286047002.0,N
1543489815.8,286047003.9,N
1543489835.7,286047004.0,N
1543489855.5,286047002.8,N
1543489875.3,286047000.4,N
1543489895.2,286047000.8,N
1543489915.0,286047000.3,N
1543489915.9,286047000.3,N
1543489935.8,286046998.4,N
1543489955.6,286046998.9,N
1543489975.4,286046998.7,N
1543489995.3,286046999.6,N
1543490015.1,286046997.0,N
1543490035.8,286046994.9,N
1543490055.7,286046995.0,N
1543490075.5,286046995.5,N
1543490095.4,286046993.7,N
1543490115.2,286046993.7,N
1543490135.0,286046993.4,N
1543490135.9,286046993.4,N
1543490155.8,286046995.7,N
1543490175.6,286046996.7,N
1543490195.4,286046998.0,N
1543490215.3,286046997.5,N
1543490235.1,286046997.5,N
1543490255.9,286046997.8,N
1543490275.7,286046997.2,N
1543490295.5,286046995.1,N
1543490315.4,286046996.1,N
1543490335.2,286046993.6,N
1543490355.0,286046994.1,N
1543490355.9,286046994.1,N
1543490375.8,286046994.0,N
1543490395.6,286046993.4,N
1543490415.5,286046993.7,N
1543490435.3,286046995.8,N
1543490455.1,286046996.2,N
1543490475.9,286046995.8,N
1543490495.7,286046995.2,N
1543490515.5,286046996.2,N
1543490535.4,286046995.4,N
1543490555.2,286046994.9,Y
1543490575.1,286047000.7,P
1543490576.0,286047000.7,N
1543490595.8,286047000.6,N
1543490615.6,286047001.2,N
1543490635.5,286047000.6,N
1543490655.3,286046998.7,N
1543490675.1,286046998.5,N
1543490695.9,286047000.4,N
1543490715.7,286047002.7,N
1543490735.6,286047002.2,N
1543490755.4,286047002.4,N
1543490775.2,286047000.4,N
1543490795.1,286047000.4,N
1543490796.0,286047000.4,N
1543490815.8,286047002.6,N
1543490835.7,286047000.8,N
1543490855.5,286046998.2,N
1543490875.3,286047001.0,N
1543490895.2,286047002.4,N
1543490915.9,286047002.7,N
1543490935.7,286047002.7,N
1543490955.6,286047001.5,N
1543490975.4,286047002.3,N
1543490995.2,286047002.3,N
1543491015.1,286047002.8,N
1543491016.0,286047002.8,N
1543491035.8,286046999.9,N
1543491055.7,286047000.2,N
1543491075.5,286047000.6,N
1543491095.3,286047002.7,N
1543491115.2,286047002.5,N
1543491135.0,286047001.4,N
1543491135.9,286047001.4,N
1543491155.8,286047001.6,N
1543491175.6,286047002.1,N
1543491195.4,286047001.9,N
1543491215.3,286047001.6,N
1543491235.1,286047001.6,N
1543491255.8,286047002.0,N
1543491275.7,286047002.0,N
1543491295.5,286047002.5,N
1543491315.4,286047002.7,N
1543491335.2,286047000.3,N
1543491355.0,286047002.4,N
1543491355.9,286047002.4,N
1543491375.8,286047000.5,N
1543491395.6,286047002.6,N
1543491415.5,286046999.7,N
1543491435.3,286047000.2,N
1543491455.1,286047000.1,N
1543491475.9,286047000.1,N
1543491495.7,286047000.6,N
1543491515.5,286047000.3,N
1543491535.4,286046999.7,N
1543491555.2,286047002.3,N
1543491575.1,286046999.9,N
1543491576.0,286046999.9,N
1543491595.8,286047001.6,N
1543491615.6,286047000.0,N
1543491635.5,286047001.6,N
1543491655.3,286047002.3,N
1543491675.1,286046999.9,N
1543491695.9,286046999.8,N
1543491715.7,286047000.1,N
1543491735.6,286047002.5,N
1543491755.4,286047002.0,N
1543491775.2,286047011.9,Y
1543491795.1,286047000.5,P
1543491796.0,286047000.5,N
1543491815.8,286047000.9,P
1543491835.7,286047000.1,N
1543491855.5,286047000.4,N
1543491875.3,286047000.2,N
1543491895.2,286047000.8,N
1543491915.9,286046998.1,Y
1543491935.7,286046999.1,P
1543491955.6,286047001.2,N
1543491975.4,286046998.6,N
1543491995.3,286046998.2,N
1543492015.1,286047000.5,N
1543492016.0,286047000.5,N
1543492035.8,286046999.8,N
1543492055.7,286047002.5,N
1543492075.5,286047002.2,N
1543492095.3,286047002.1,N
1543492115.2,286047000.5,N
1543492135.0,286046998.3,N
1543492135.9,286046998.3,N
1543492155.8,286046998.3,N
1543492175.6,286047000.1,N
1543492195.4,286047000.3,N
1543492215.3,286046999.7,N
1543492235.1,286046999.9,N
1543492255.8,286047000.1,N
1543492275.7,286047000.3,N
1543492295.5,286047000.4,N
1543492315.4,286047002.8,N
1543492335.2,286046999.8,N
1543492355.0,286047000.0,N
1543492355.9,286047000.0,N
1543492375.8,286047000.6,N
1543492395.6,286047000.8,N
1543492415.4,286047000.1,N
1543492435.3,286046999.9,N
1543492455.1,286047001.7,N
1543492475.9,286047003.9,Y
1543492495.7,286047001.9,P
1543492515.5,286046999.8,N
1543492535.4,286047002.8,P
1543492555.2,286047000.7,N
1543492575.0,286047000.6,N
1543492575.9,286047000.6,N
1543492595.8,286047000.4,N
1543492615.6,286047000.4,N
1543492635.5,286046998.8,N
1543492655.3,286047001.0,N
1543492675.1,286047000.3,N
1543492695.9,286047001.2,N
1543492715.7,286047000.9,N
1543492735.5,286047001.2,N
1543492755.4,286046999.7,N
1543492775.2,286047000.7,N
1543492795.1,286047000.0,N
1543492796.0,286047000.0,N
